Regional Weather Roundup
Issued by NWS

Home | Current Version | Previous Version | Graphics & Text | Print | Product List | Glossary On
Versions: 1 2 3 4 5 6 7 8 9 10 11 12 13 14 15 16 17 18 19 20 21 22 23 24 25 26 27 28 29 30 31 32 33 34 35 36 37 38 39 40 41 42 43 44 45 46 47 48 49 50
000
ASUS45 KPSR 232300
RWRAZ

PRELIMINARY ARIZONA REGIONAL HOURLY WEATHER ROUNDUP
NATIONAL WEATHER SERVICE PHOENIX AZ
400 PM MST WED APR 23 2014

NOTE: FAIR INDICATES FEW OR NO CLOUDS BELOW 12,000 FEET WITH NO
SIGNIFICANT WEATHER AND/OR OBSTRUCTIONS TO VISIBILITY.

AZZ001>003-036-240000-
NORTHWEST ARIZONA

CITY           SKY/WX    TMP DP  RH WIND       PRES   REMARKS
KINGMAN        SUNNY     71   6   8 NE9G17    29.92F
$$

AZZ004>008-015-016-018-240000-
NORTH CENTRAL ARIZONA

CITY           SKY/WX    TMP DP  RH WIND       PRES   REMARKS
GRAND CANYON   SUNNY     57  13  17 W8G28     29.99S
WILLIAMS       SUNNY     59   5  11 W15       30.05F
PRESCOTT       SUNNY     70   7   8 NW12G18   29.92F
FLAGSTAFF      SUNNY     59   5  11 W16G28    29.98S
PAYSON         SUNNY     68  12  11 SW9G22    29.94S
PAGE           SUNNY     68  12  11 N12       29.88F
$$

AZZ009>014-017-240000-
NORTHEAST ARIZONA

CITY           SKY/WX    TMP DP  RH WIND       PRES   REMARKS
WINSLOW        NOT AVBL
SAINT JOHNS    PTSUNNY   66  10  11 NW28G35   29.87R
WINDOW ROCK    PTSUNNY   59   2  10 W16G29    29.93R
SHOW LOW       MOSUNNY   64   9  11 SW15      29.96R
$$

AZZ023-240000-
GREATER PHOENIX AREA

CITY           SKY/WX    TMP DP  RH WIND       PRES   REMARKS
PHOENIX        MOSUNNY   86  10   6 W12G20    29.77F
GLENDALE       MOSUNNY   84  10   6 SE12G18   29.78F
DEER VALLEY    SUNNY     83   6   5 SW12      29.77F
SCOTTSDALE     SUNNY     82  12   7 VRB6      29.79F
MESA-GATEWAY   MOSUNNY   84  16   8 W15       29.81F
CHANDLER       MOSUNNY   84  12   6 SW12G20   29.79F
$$

AZZ027-028-240000-
SOUTHWEST MARICOPA COUNTY AND PINAL COUNTY

CITY           SKY/WX    TMP DP  RH WIND       PRES   REMARKS
CASA GRANDE    SUNNY     82  19   9 W16G23    29.81F
GILA BEND      PTCLDY    86  16   7 W13G18    29.81F
$$

AZZ503-504-507>509-240000-
SOUTHEAST ARIZONA

CITY           SKY/WX    TMP DP  RH WIND       PRES   REMARKS
TUCSON         MOSUNNY   83  15   8 W14G28    29.84F
NOGALES        SUNNY     80  24  12 SW12G23   29.89F
SIERRA VISTA   MOSUNNY   77  19  11 W20G31    29.91F
SAFFORD        SUNNY     84  13   7 W30G39    29.77R
$$

AZZ020-021-025-026-031-240000-
SOUTHWEST ARIZONA

CITY           SKY/WX    TMP DP  RH WIND       PRES   REMARKS
YUMA           NOT AVBL
$$

CAZ031-033-041-043-047-048-061-240000-
SOUTHERN CALIFORNIA

CITY           SKY/WX    TMP DP  RH WIND       PRES   REMARKS
DOWNTOWN L.A.  SUNNY     70  38  31 VRB7      29.92F
L.A. AIRPORT   PTSUNNY   68  38  33 W15       29.93F
SAN DIEGO      PTSUNNY   69  53  56 W10       29.94F
BURBANK        SUNNY     72  35  25 S9        29.91S
ONTARIO        PTSUNNY   75  44  33 W13G21    29.90S
RIVERSIDE      PTSUNNY   75  45  34 W12       29.89F
PALM SPRINGS   SUNNY     85  13   7 CALM      29.82F
EL CENTRO NAS  MOSUNNY   85  17   8 N8        29.80F
IMPERIAL       SUNNY     85  20   9 N8        29.80F
BLYTHE         SUNNY     87  12   6 N12G17    29.80F
$$

NVZ020-UTZ003-240000-
SOUTHERN NEVADA-UTAH

CITY           SKY/WX    TMP DP  RH WIND       PRES   REMARKS
LAS VEGAS      NOT AVBL
SALT LAKE CITY MOSUNNY   51  19  28 CALM      30.05F
$$

NMZ009-TXZ055-240000-
NEW MEXICO-WEST TEXAS

CITY           SKY/WX    TMP DP  RH WIND       PRES   REMARKS
ALBUQUERQUE    CLOUDY    72  14  11 W26G46    29.75F
EL PASO        MOSUNNY   85  16   7 W21G37    29.75F
$$


........................KEY........................
SKY/WX - SKY CONDITION/WEATHER
TMP    - TEMPERATURE IN FAHRENHEIT
DP     - DEW POINT IN FAHRENHEIT
RH     - RELATIVE HUMIDITY IN PERCENT
WIND   - DIRECTION AND SPEED IN MILES PER HOUR (MPH)
VRB    - VARIABLE WIND DIRECTION
PRES   - MEAN SEA LEVEL PRESSURE IN INCHES OF MERCURY
         F - FALLING PRESSURE   R - RISING PRESSURE
         S - STEADY PRESSURE
VSB    - VISIBILITY IN MILES
HX     - HEAT INDEX IN FAHRENHEIT
WCI    - WIND CHILL INDEX IN FAHRENHEIT
TC     - TEMPERATURE IN CELSIUS WHICH IS ALSO KNOWN AS
         TEMPERATURE IN CENTIGRADE
AFB    - AIR FORCE BASE
         LUKE AFB IS LUKE AIR FORCE BASE
         DAVIS-MONTHAN IS DAVIS-MONTHAN AIR FORCE BASE
NAS    - NAVAL AIR STATION
         EL CENTRO NAS IS EL CENTRO NAVAL AIR STATION
N/A    - NOT AVAILABLE



USA.gov is the U.S. government's official web portal to all federal, state and local government web resources and services.